Weather History for K1M4 - November, 2011

Change the Weather History Date:

Thursday, November 24, 2011

  Actual Average (KJFX) Record (KJFX)
Temperature  
Mean Temperature 50 °F -  
Max Temperature 63 °F 59 °F 73 °F (1974)
Min Temperature 34 °F 36 °F 10 °F (1970)
Degree Days  
Heating Degree Days 15    
Moisture  
Dew Point 39 °F    
Average Humidity 80    
Maximum Humidity 100    
Minimum Humidity 37    
Precipitation  
Precipitation 0.00 in - - ()
Sea Level Pressure  
Sea Level Pressure 30.44 in    
Wind  
Wind Speed 3 mph (NNE)    
Max Wind Speed 6 mph    
Max Gust Speed -    
Visibility 8 miles    
Events      
Averages and records for this station are not official NWS values.
T = Trace of Precipitation, MM = Missing Value Source: NWS Daily Summary

Daily Weather History Graph

Daily Weather History Graph

Search for Another Location

Airport or City:

Trip Planner

Search our weather history database for the weather conditions in past years. The results will help you decide how hot, cold, wet, or windy it might be!

Date:

Astronomy

Nov. 24, 2011 Rise Set
Actual Time 6:31 AM CST 4:42 PM CST
Civil Twilight 6:04 AM CST 5:09 PM CST
Nautical Twilight 5:33 AM CST 5:39 PM CST
Astronomical Twilight 5:03 AM CST 6:10 PM CST
Moon 5:48 AM CST (11/24) 4:14 PM CST (11/24)
Length of Visible Light 11h 04m
Length of Day
10h 10m
Waning Crescent, 0% of the Moon is Illuminated
Nov 24
Waning Crescent
Nov 25
New
Dec 2
First Quarter
Dec 10
Full
Dec 17
Last Quarter

Hourly Weather History & Observations

Time (CST) Temp. Windchill Dew Point Humidity Pressure Visibility Wind Dir Wind Speed Gust Speed Precip Events Conditions
12:56 AM 41.0 °F 39.0 °F 38.8 °F 92% 30.42 in 9.0 mi North 3.5 mph - N/A   Clear
1:56 AM 39.9 °F 36.7 °F 38.8 °F 96% 30.42 in 8.0 mi North 4.6 mph - N/A   Clear
2:56 AM 39.9 °F 37.8 °F 38.8 °F 96% 30.42 in 7.0 mi NNE 3.5 mph - N/A   Clear
4:56 AM 38.8 °F 35.4 °F 38.8 °F 100% 30.43 in 6.0 mi NNE 4.6 mph - N/A   Clear
5:56 AM 37.9 °F 34.4 °F 36.9 °F 96% 30.45 in 4.0 mi NNE 4.6 mph - N/A   Clear
6:56 AM 38.8 °F 35.4 °F 38.8 °F 100% 30.47 in 4.0 mi NE 4.6 mph - N/A   Clear
7:56 AM 43.9 °F 42.3 °F 41.0 °F 90% 30.47 in 6.0 mi Variable 3.5 mph - N/A   Clear
8:56 AM 48.9 °F - 41.9 °F 77% 30.47 in 10.0 mi NNE 5.8 mph - N/A   Clear
9:56 AM 54.9 °F - 39.9 °F 57% 30.48 in 10.0 mi Variable 4.6 mph - N/A   Clear
10:56 AM 57.9 °F - 37.9 °F 47% 30.47 in 10.0 mi Variable 4.6 mph - N/A   Clear
11:56 AM 59.0 °F - 37.9 °F 46% 30.44 in 10.0 mi SSW 4.6 mph - N/A   Clear
2:56 PM 63.0 °F - 36.0 °F 37% 30.43 in 10.0 mi Calm Calm - N/A   Clear
3:56 PM 61.0 °F - 36.9 °F 41% 30.43 in 10.0 mi Calm Calm - N/A   Clear
4:56 PM 52.0 °F - 41.0 °F 66% 30.43 in 10.0 mi Calm Calm - N/A   Clear
5:56 PM 45.0 °F 43.5 °F 41.0 °F 86% 30.43 in 10.0 mi East 3.5 mph - N/A   Clear
6:56 PM 43.0 °F - 39.9 °F 89% 30.43 in 10.0 mi Calm Calm - N/A   Clear
7:56 PM 39.9 °F - 38.8 °F 96% 30.43 in 10.0 mi Calm Calm - N/A   Clear
8:56 PM 37.9 °F - 37.9 °F 100% 30.43 in 10.0 mi Calm Calm - N/A   Clear
11:56 PM 34.0 °F - 34.0 °F 100% 30.41 in 7.0 mi Calm Calm - N/A   Clear